QPF
0.03 0.02 0.03 0.03 0.03 0.06 0.04 0.02 0.03 0.04 0.03 0.05 0.05 0.04 0.03 0.04 0.07 0.11 0.17 0.19 0.16 0.12 0.09 0.09 0.08 0.08 0.07 0.05 0.04 0.05 0.04 0.04 0.06 0.07 0.08 0.08 0.07 0.06 0.05 0.05 0.04 0.02 0.03
0.02 0.02 0.02 0.03 0.03 0.06 0.06 0.04 0.03 0.04 0.04 0.05 0.05 0.03 0.04 0.04 0.05 0.07 0.08 0.09 0.11 0.11 0.10 0.08 0.06 0.07 0.06 0.04 0.04 0.05 0.04 0.04 0.05 0.07 0.09 0.08 0.07 0.05 0.04 0.04 0.02 0.02 0.02
0.01 0.01 0.01 0.02 0.02 0.03 0.05 0.06 0.04 0.04 0.04 0.03 0.04 0.04 0.04 0.05 0.05 0.07 0.07 0.08 0.08 0.08 0.09 0.08 0.06 0.06 0.05 0.04 0.04 0.04 0.03 0.05 0.07 0.07 0.07 0.05 0.05 0.05 0.04 0.04 0.03 0.03 0.02
0.01 0.00 0.01 0.01 0.01 0.01 0.03 0.03 0.04 0.04 0.04 0.03 0.03 0.04 0.04 0.05 0.07 0.09 0.07 0.07 0.07 0.06 0.07 0.07 0.06 0.05 0.04 0.04 0.05 0.04 0.04 0.05 0.06 0.06 0.05 0.05 0.04 0.05 0.05 0.04 0.03 0.02 0.02
0.00 0.00 0.01 0.01 0.01 0.01 0.02 0.03 0.03 0.04 0.04 0.04 0.03 0.04 0.04 0.05 0.07 0.07 0.06 0.05 0.06 0.05 0.05 0.05 0.05 0.04 0.03 0.04 0.06 0.05 0.05 0.04 0.03 0.04 0.04 0.06 0.06 0.07 0.06 0.03 0.03 0.03 0.03
0.00 0.00 0.01 0.01 0.01 0.01 0.01 0.03 0.04 0.05 0.05 0.05 0.04 0.05 0.05 0.05 0.07 0.06 0.05 0.05 0.05 0.04 0.04 0.04 0.04 0.04 0.03 0.04 0.05 0.04 0.03 0.03 0.03 0.03 0.05 0.07 0.06 0.05 0.05 0.04 0.04 0.04 0.03
0.01 0.00 0.00 0.01 0.01 0.01 0.02 0.02 0.03 0.05 0.06 0.06 0.05 0.05 0.05 0.05 0.05 0.05 0.05 0.05 0.05 0.04 0.04 0.05 0.05 0.03 0.03 0.05 0.04 0.03 0.03 0.05 0.04 0.02 0.02 0.04 0.04 0.03 0.03 0.04 0.04 0.03 0.03
0.02 0.01 0.00 0.01 0.01 0.01 0.01 0.02 0.02 0.04 0.06 0.07 0.06 0.06 0.07 0.07 0.07 0.08 0.07 0.05 0.06 0.06 0.05 0.05 0.05 0.05 0.05 0.06 0.04 0.03 0.04 0.05 0.04 0.02 0.03 0.04 0.04 0.03 0.03 0.03 0.04 0.04 0.04
0.02 0.02 0.01 0.00 0.00 0.01 0.01 0.02 0.02 0.04 0.06 0.07 0.07 0.07 0.07 0.08 0.09 0.09 0.07 0.05 0.07 0.08 0.07 0.06 0.07 0.08 0.08 0.06 0.05 0.04 0.04 0.05 0.05 0.04 0.04 0.04 0.04 0.04 0.03 0.03 0.03 0.04 0.04
0.01 0.03 0.04 0.03 0.02 0.01 0.01 0.01 0.02 0.02 0.04 0.07 0.08 0.09 0.10 0.10 0.10 0.10 0.08 0.08 0.08 0.10 0.11 0.10 0.10 0.09 0.08 0.07 0.06 0.05 0.06 0.05 0.04 0.05 0.06 0.03 0.04 0.03 0.03 0.03 0.03 0.03 0.04
0.01 0.03 0.03 0.04 0.06 0.02 0.01 0.01 0.01 0.02 0.03 0.04 0.07 0.09 0.10 0.11 0.10 0.10 0.10 0.12 0.16 0.16 0.16 0.14 0.11 0.08 0.07 0.06 0.07 0.07 0.07 0.05 0.06 0.07 0.03 0.03 0.03 0.03 0.03 0.03 0.03 0.03 0.03
0.01 0.01 0.02 0.02 0.03 0.03 0.01 0.01 0.00 0.01 0.02 0.03 0.05 0.07 0.10 0.13 0.14 0.14 0.18 0.19 0.18 0.17 0.16 0.12 0.09 0.08 0.06 0.05 0.06 0.07 0.08 0.06 0.07 0.05 0.04 0.04 0.03 0.03 0.03 0.02 0.03 0.03 0.03
0.01 0.01 0.02 0.01 0.02 0.02 0.02 0.02 0.02 0.02 0.03 0.03 0.03 0.05 0.07 0.08 0.09 0.10 0.13 0.13 0.13 0.13 0.11 0.09 0.08 0.08 0.08 0.06 0.05 0.06 0.07 0.06 0.06 0.07 0.07 0.06 0.04 0.03 0.05 0.04 0.03 0.03 0.04
0.01 0.01 0.01 0.02 0.02 0.02 0.03 0.03 0.03 0.04 0.04 0.04 0.03 0.03 0.03 0.03 0.04 0.04 0.04 0.04 0.04 0.05 0.07 0.07 0.07 0.07 0.08 0.09 0.07 0.06 0.06 0.06 0.04 0.06 0.07 0.08 0.06 0.06 0.08 0.06 0.05 0.05 0.05
0.01 0.01 0.02 0.03 0.03 0.03 0.03 0.05 0.05 0.04 0.04 0.04 0.03 0.02 0.03 0.03 0.03 0.04 0.05 0.06 0.06 0.06 0.05 0.06 0.06 0.06 0.07 0.08 0.09 0.09 0.06 0.05 0.04 0.04 0.04 0.07 0.07 0.07 0.08 0.07 0.06 0.07 0.07
0.02 0.02 0.02 0.02 0.02 0.02 0.02 0.04 0.05 0.05 0.04 0.04 0.04 0.03 0.03 0.02 0.02 0.02 0.02 0.03 0.03 0.04 0.04 0.04 0.05 0.04 0.04 0.05 0.06 0.09 0.07 0.05 0.05 0.05 0.04 0.04 0.05 0.05 0.06 0.06 0.06 0.07 0.07
0.02 0.01 0.00 0.01 0.01 0.02 0.02 0.02 0.08 0.10 0.08 0.06 0.03 0.02 0.02 0.01 0.01 0.01 0.01 0.01 0.02 0.02 0.02 0.02 0.03 0.03 0.03 0.03 0.04 0.05 0.05 0.05 0.07 0.07 0.06 0.05 0.05 0.06 0.05 0.06 0.07 0.07 0.06
0.01 0.01 0.01 0.00 0.01 0.01 0.02 0.01 0.06 0.07 0.08 0.12 0.03 0.01 0.00 0.01 0.01 0.00 0.01 0.01 0.02 0.02 0.02 0.03 0.03 0.02 0.02 0.02 0.02 0.02 0.03 0.04 0.05 0.06 0.07 0.07 0.06 0.04 0.05 0.05 0.06 0.07 0.06
0.01 0.01 0.01 0.01 0.01 0.01 0.01 0.00 0.01 0.02 0.02 0.04 0.02 0.01 0.01 0.01 0.01 0.01 0.01 0.01 0.01 0.02 0.01 0.02 0.03 0.03 0.03 0.02 0.02 0.02 0.04 0.05 0.07 0.06 0.07 0.08 0.07 0.05 0.04 0.04 0.05 0.05 0.06
0.01 0.01 0.00 0.01 0.01 0.01 0.01 0.01 0.01 0.01 0.01 0.01 0.02 0.01 0.01 0.01 0.00 0.00 0.01 0.01 0.01 0.02 0.02 0.02 0.03 0.03 0.02 0.02 0.03 0.04 0.06 0.07 0.06 0.06 0.07 0.10 0.09 0.06 0.05 0.04 0.04 0.05 0.06
0.01 0.01 0.01 0.01 0.01 0.01 0.01 0.01 0.01 0.01 0.01 0.01 0.01 0.01 0.01 0.01 0.00 0.00 0.00 0.01 0.01 0.02 0.02 0.02 0.03 0.04 0.03 0.02 0.03 0.04 0.05 0.06 0.06 0.05 0.05 0.06 0.07 0.07 0.09 0.08 0.05 0.05 0.04
0.00 0.00 0.00 0.01 0.01 0.01 0.01 0.01 0.01 0.01 0.01 0.02 0.02 0.02 0.02 0.01 0.01 0.01 0.02 0.02 0.01 0.01 0.02 0.02 0.04 0.04 0.03 0.03 0.04 0.04 0.03 0.04 0.05 0.07 0.07 0.05 0.05 0.06 0.06 0.06 0.08 0.08 0.06
0.00 0.00 0.00 0.00 0.01 0.01 0.00 0.00 0.01 0.01 0.01 0.03 0.03 0.02 0.02 0.02 0.02 0.02 0.04 0.03 0.02 0.02 0.02 0.02 0.03 0.04 0.02 0.02 0.03 0.04 0.03 0.03 0.05 0.07 0.07 0.08 0.08 0.07 0.06 0.06 0.10 0.13 0.13
0.00 0.00 0.00 0.00 0.00 0.00 0.01 0.01 0.01 0.01 0.02 0.03 0.03 0.03 0.02 0.02 0.04 0.05 0.06 0.07 0.04 0.03 0.03 0.02 0.02 0.03 0.02 0.01 0.02 0.02 0.03 0.04 0.05 0.06 0.06 0.08 0.07 0.06 0.06 0.06 0.06 0.11 0.15
0.01 0.00 0.00 0.00 0.01 0.01 0.01 0.01 0.01 0.02 0.03 0.03 0.04 0.05 0.05 0.07 0.08 0.07 0.10 0.09 0.06 0.04 0.04 0.03 0.02 0.01 0.01 0.01 0.01 0.02 0.02 0.03 0.03 0.03 0.04 0.06 0.08 0.09 0.09 0.08 0.07 0.10 0.13
0.02 0.01 0.01 0.01 0.01 0.01 0.01 0.01 0.02 0.02 0.03 0.03 0.05 0.06 0.05 0.05 0.05 0.05 0.07 0.12 0.12 0.07 0.03 0.02 0.02 0.02 0.01 0.01 0.01 0.01 0.01 0.02 0.02 0.04 0.04 0.05 0.06 0.09 0.12 0.08 0.07 0.10 0.13
MSLP
1012.75 1012.19 1011.79 1011.60 1011.60 1011.73 1011.89 1012.00 1012.00 1011.87 1011.65 1011.39 1011.17 1011.02 1010.96 1010.95 1010.95 1010.91 1010.77 1010.52 1010.20 1009.86 1009.58 1009.42 1009.43 1009.61 1009.93 1010.31 1010.71 1011.07 1011.36 1011.58 1011.77 1011.96 1012.20 1012.48 1012.82 1013.16 1013.49 1013.75 1013.94 1014.05 1014.11
1012.73 1012.25 1011.92 1011.76 1011.78 1011.89 1012.02 1012.11 1012.10 1011.98 1011.79 1011.58 1011.40 1011.29 1011.27 1011.30 1011.35 1011.35 1011.27 1011.11 1010.87 1010.62 1010.41 1010.29 1010.29 1010.41 1010.62 1010.88 1011.14 1011.37 1011.56 1011.72 1011.87 1012.07 1012.31 1012.61 1012.95 1013.29 1013.59 1013.83 1013.99 1014.09 1014.16
1012.58 1012.22 1011.97 1011.86 1011.89 1012.00 1012.13 1012.21 1012.20 1012.11 1011.96 1011.79 1011.66 1011.59 1011.59 1011.63 1011.68 1011.69 1011.63 1011.49 1011.31 1011.12 1010.96 1010.87 1010.88 1010.97 1011.11 1011.29 1011.46 1011.61 1011.73 1011.86 1012.02 1012.22 1012.49 1012.80 1013.13 1013.46 1013.74 1013.95 1014.10 1014.20 1014.28
1012.36 1012.11 1011.96 1011.92 1011.98 1012.10 1012.23 1012.31 1012.32 1012.26 1012.16 1012.05 1011.96 1011.93 1011.93 1011.96 1011.97 1011.95 1011.87 1011.73 1011.57 1011.41 1011.30 1011.25 1011.27 1011.36 1011.48 1011.61 1011.73 1011.84 1011.94 1012.06 1012.23 1012.45 1012.73 1013.05 1013.37 1013.68 1013.93 1014.12 1014.26 1014.37 1014.48
1012.13 1012.00 1011.94 1011.98 1012.08 1012.21 1012.34 1012.42 1012.45 1012.43 1012.38 1012.32 1012.28 1012.27 1012.27 1012.27 1012.24 1012.17 1012.05 1011.89 1011.73 1011.60 1011.52 1011.51 1011.56 1011.66 1011.78 1011.90 1012.00 1012.10 1012.19 1012.32 1012.49 1012.73 1013.02 1013.33 1013.64 1013.92 1014.14 1014.31 1014.44 1014.57 1014.71
1011.97 1011.94 1011.98 1012.08 1012.21 1012.36 1012.48 1012.56 1012.60 1012.61 1012.59 1012.58 1012.59 1012.60 1012.60 1012.58 1012.51 1012.38 1012.22 1012.04 1011.88 1011.76 1011.71 1011.73 1011.82 1011.94 1012.06 1012.18 1012.28 1012.37 1012.46 1012.60 1012.78 1013.02 1013.30 1013.61 1013.89 1014.14 1014.34 1014.49 1014.61 1014.75 1014.92
1011.94 1012.00 1012.11 1012.25 1012.40 1012.54 1012.64 1012.71 1012.74 1012.76 1012.78 1012.80 1012.84 1012.88 1012.89 1012.85 1012.76 1012.61 1012.42 1012.22 1012.05 1011.95 1011.92 1011.97 1012.07 1012.20 1012.33 1012.45 1012.53 1012.61 1012.71 1012.84 1013.02 1013.26 1013.53 1013.82 1014.08 1014.30 1014.48 1014.61 1014.73 1014.88 1015.07
1012.09 1012.20 1012.34 1012.49 1012.64 1012.75 1012.82 1012.84 1012.85 1012.86 1012.89 1012.95 1013.02 1013.08 1013.12 1013.09 1012.99 1012.83 1012.63 1012.43 1012.26 1012.17 1012.15 1012.20 1012.31 1012.44 1012.56 1012.65 1012.73 1012.79 1012.87 1012.99 1013.17 1013.40 1013.66 1013.93 1014.18 1014.39 1014.55 1014.68 1014.80 1014.95 1015.15
1012.38 1012.51 1012.66 1012.80 1012.91 1012.97 1012.98 1012.96 1012.93 1012.91 1012.94 1013.00 1013.10 1013.19 1013.25 1013.25 1013.17 1013.02 1012.83 1012.64 1012.48 1012.39 1012.37 1012.41 1012.50 1012.61 1012.71 1012.77 1012.82 1012.86 1012.93 1013.04 1013.20 1013.43 1013.69 1013.96 1014.20 1014.41 1014.57 1014.69 1014.82 1014.97 1015.17
1012.75 1012.87 1013.01 1013.12 1013.19 1013.19 1013.14 1013.05 1012.96 1012.91 1012.92 1012.99 1013.10 1013.22 1013.31 1013.34 1013.29 1013.17 1013.00 1012.82 1012.67 1012.57 1012.54 1012.56 1012.62 1012.70 1012.76 1012.79 1012.81 1012.84 1012.89 1012.99 1013.16 1013.39 1013.65 1013.93 1014.18 1014.39 1014.56 1014.70 1014.83 1014.98 1015.17
1013.10 1013.21 1013.33 1013.41 1013.43 1013.38 1013.26 1013.11 1012.97 1012.88 1012.87 1012.93 1013.04 1013.18 1013.29 1013.36 1013.34 1013.25 1013.11 1012.94 1012.80 1012.69 1012.63 1012.63 1012.66 1012.69 1012.72 1012.73 1012.74 1012.75 1012.81 1012.92 1013.09 1013.33 1013.61 1013.89 1014.16 1014.39 1014.57 1014.73 1014.86 1015.02 1015.20
1013.37 1013.47 1013.57 1013.63 1013.61 1013.52 1013.36 1013.17 1012.99 1012.87 1012.83 1012.87 1012.98 1013.12 1013.25 1013.33 1013.34 1013.28 1013.16 1013.01 1012.86 1012.74 1012.66 1012.63 1012.62 1012.63 1012.63 1012.64 1012.65 1012.67 1012.74 1012.87 1013.06 1013.31 1013.60 1013.90 1014.18 1014.43 1014.63 1014.80 1014.95 1015.10 1015.27
1013.48 1013.59 1013.69 1013.74 1013.71 1013.60 1013.42 1013.22 1013.03 1012.89 1012.83 1012.85 1012.95 1013.08 1013.21 1013.30 1013.32 1013.28 1013.17 1013.03 1012.88 1012.75 1012.65 1012.59 1012.56 1012.55 1012.55 1012.56 1012.59 1012.65 1012.74 1012.90 1013.11 1013.37 1013.66 1013.97 1014.26 1014.52 1014.73 1014.92 1015.07 1015.22 1015.38
1013.44 1013.56 1013.67 1013.73 1013.71 1013.61 1013.45 1013.27 1013.08 1012.95 1012.88 1012.89 1012.96 1013.07 1013.19 1013.27 1013.30 1013.27 1013.18 1013.05 1012.90 1012.75 1012.64 1012.56 1012.51 1012.50 1012.51 1012.55 1012.61 1012.71 1012.84 1013.02 1013.24 1013.50 1013.79 1014.08 1014.36 1014.62 1014.84 1015.03 1015.19 1015.34 1015.49
1013.25 1013.39 1013.51 1013.59 1013.60 1013.55 1013.44 1013.29 1013.15 1013.03 1012.97 1012.97 1013.02 1013.10 1013.19 1013.27 1013.30 1013.27 1013.19 1013.07 1012.93 1012.79 1012.66 1012.58 1012.53 1012.52 1012.55 1012.62 1012.72 1012.85 1013.02 1013.21 1013.43 1013.68 1013.93 1014.19 1014.44 1014.68 1014.89 1015.08 1015.25 1015.41 1015.56
1012.97 1013.11 1013.24 1013.34 1013.40 1013.40 1013.36 1013.28 1013.20 1013.12 1013.07 1013.06 1013.09 1013.14 1013.21 1013.27 1013.29 1013.28 1013.22 1013.12 1013.00 1012.86 1012.75 1012.66 1012.61 1012.62 1012.67 1012.76 1012.90 1013.05 1013.23 1013.43 1013.63 1013.83 1014.04 1014.24 1014.44 1014.63 1014.82 1015.01 1015.19 1015.36 1015.53
1012.65 1012.78 1012.91 1013.02 1013.11 1013.18 1013.21 1013.21 1013.20 1013.17 1013.14 1013.13 1013.14 1013.17 1013.21 1013.25 1013.28 1013.28 1013.25 1013.18 1013.09 1012.99 1012.89 1012.81 1012.77 1012.78 1012.84 1012.95 1013.10 1013.27 1013.44 1013.61 1013.78 1013.92 1014.06 1014.19 1014.32 1014.47 1014.63 1014.81 1015.00 1015.20 1015.39
1012.34 1012.45 1012.55 1012.66 1012.78 1012.90 1013.01 1013.09 1013.15 1013.17 1013.17 1013.16 1013.14 1013.14 1013.16 1013.18 1013.22 1013.25 1013.26 1013.25 1013.20 1013.14 1013.06 1013.00 1012.97 1012.98 1013.04 1013.15 1013.29 1013.45 1013.61 1013.75 1013.86 1013.93 1013.99 1014.05 1014.11 1014.20 1014.33 1014.50 1014.71 1014.93 1015.17
1012.10 1012.15 1012.21 1012.31 1012.45 1012.61 1012.79 1012.94 1013.06 1013.14 1013.16 1013.14 1013.10 1013.07 1013.05 1013.07 1013.12 1013.18 1013.24 1013.28 1013.29 1013.28 1013.24 1013.20 1013.17 1013.18 1013.23 1013.33 1013.46 1013.60 1013.73 1013.83 1013.88 1013.89 1013.88 1013.85 1013.85 1013.89 1013.99 1014.15 1014.37 1014.63 1014.90
1011.91 1011.91 1011.93 1012.01 1012.15 1012.35 1012.58 1012.80 1012.98 1013.09 1013.13 1013.10 1013.03 1012.96 1012.92 1012.92 1012.97 1013.06 1013.17 1013.28 1013.35 1013.39 1013.39 1013.38 1013.36 1013.36 1013.40 1013.48 1013.59 1013.71 1013.81 1013.88 1013.89 1013.85 1013.77 1013.69 1013.63 1013.63 1013.70 1013.85 1014.08 1014.36 1014.67
1011.79 1011.73 1011.72 1011.78 1011.93 1012.16 1012.44 1012.71 1012.94 1013.08 1013.12 1013.08 1012.97 1012.86 1012.78 1012.76 1012.80 1012.92 1013.07 1013.23 1013.37 1013.46 1013.50 1013.51 1013.50 1013.50 1013.53 1013.60 1013.69 1013.80 1013.89 1013.94 1013.93 1013.86 1013.75 1013.63 1013.53 1013.49 1013.53 1013.66 1013.89 1014.19 1014.52
1011.68 1011.61 1011.57 1011.62 1011.79 1012.05 1012.37 1012.70 1012.96 1013.13 1013.17 1013.11 1012.97 1012.81 1012.68 1012.62 1012.66 1012.77 1012.95 1013.15 1013.34 1013.47 1013.55 1013.58 1013.58 1013.59 1013.61 1013.67 1013.77 1013.87 1013.97 1014.03 1014.03 1013.97 1013.85 1013.72 1013.59 1013.52 1013.53 1013.64 1013.85 1014.13 1014.46
1011.58 1011.50 1011.47 1011.53 1011.72 1012.01 1012.38 1012.74 1013.05 1013.24 1013.29 1013.21 1013.03 1012.82 1012.64 1012.54 1012.54 1012.65 1012.83 1013.05 1013.26 1013.42 1013.53 1013.57 1013.58 1013.59 1013.62 1013.69 1013.80 1013.93 1014.06 1014.16 1014.20 1014.17 1014.08 1013.95 1013.82 1013.73 1013.70 1013.77 1013.93 1014.18 1014.48
1011.43 1011.38 1011.37 1011.45 1011.66 1012.00 1012.40 1012.82 1013.16 1013.38 1013.44 1013.34 1013.14 1012.89 1012.67 1012.52 1012.48 1012.55 1012.72 1012.93 1013.14 1013.31 1013.42 1013.47 1013.49 1013.50 1013.53 1013.62 1013.75 1013.93 1014.11 1014.28 1014.38 1014.42 1014.38 1014.28 1014.16 1014.05 1013.99 1014.00 1014.10 1014.28 1014.52
1011.22 1011.21 1011.23 1011.34 1011.58 1011.94 1012.38 1012.83 1013.21 1013.46 1013.54 1013.45 1013.24 1012.97 1012.71 1012.52 1012.44 1012.47 1012.60 1012.79 1012.98 1013.14 1013.24 1013.28 1013.29 1013.30 1013.34 1013.44 1013.61 1013.83 1014.09 1014.33 1014.52 1014.63 1014.66 1014.62 1014.52 1014.40 1014.31 1014.26 1014.28 1014.37 1014.52
1010.94 1010.97 1011.01 1011.14 1011.39 1011.76 1012.23 1012.70 1013.12 1013.40 1013.52 1013.46 1013.26 1012.99 1012.71 1012.50 1012.39 1012.39 1012.48 1012.63 1012.79 1012.92 1012.99 1013.01 1013.00 1013.00 1013.04 1013.15 1013.35 1013.62 1013.94 1014.26 1014.54 1014.75 1014.86 1014.88 1014.82 1014.71 1014.58 1014.47 1014.41 1014.40 1014.45
Thickness
5793 5796 5796 5796 5797 5797 5797 5798 5798 5798 5798 5797 5796 5795 5795 5794 5793 5792 5790 5789 5787 5786 5784 5782 5781 5780 5779 5778 5777 5776 5775 5774 5772 5771 5770 5769 5768 5767 5766 5764 5763 5762 5761
5798 5798 5798 5797 5797 5797 5797 5798 5798 5798 5798 5797 5796 5794 5794 5793 5792 5790 5789 5788 5787 5785 5783 5782 5781 5780 5779 5778 5777 5775 5774 5773 5772 5771 5770 5769 5767 5766 5765 5764 5763 5762 5761
5800 5799 5799 5798 5798 5798 5797 5797 5798 5798 5797 5796 5795 5794 5793 5792 5791 5790 5788 5788 5786 5785 5783 5782 5781 5780 5778 5777 5776 5775 5774 5773 5772 5770 5769 5768 5767 5766 5765 5763 5762 5761 5760
5802 5800 5799 5799 5798 5798 5798 5797 5797 5797 5796 5795 5794 5794 5793 5791 5790 5789 5788 5787 5786 5784 5783 5781 5780 5779 5778 5777 5776 5775 5773 5772 5771 5770 5769 5767 5766 5765 5764 5763 5761 5760 5759
5802 5801 5800 5799 5799 5798 5797 5797 5796 5796 5795 5795 5794 5793 5792 5791 5789 5788 5787 5786 5785 5783 5782 5781 5780 5779 5778 5777 5776 5774 5773 5772 5771 5770 5769 5767 5766 5765 5764 5762 5761 5760 5759
5803 5802 5801 5800 5799 5798 5797 5797 5796 5795 5794 5794 5793 5792 5791 5790 5788 5787 5786 5785 5784 5783 5782 5781 5780 5779 5777 5776 5775 5774 5773 5772 5771 5770 5768 5767 5766 5765 5764 5763 5761 5759 5758
5803 5803 5802 5801 5799 5798 5798 5797 5796 5795 5794 5793 5792 5791 5790 5789 5787 5786 5785 5784 5783 5782 5781 5780 5779 5778 5777 5776 5775 5774 5773 5772 5771 5769 5768 5767 5766 5765 5764 5763 5761 5759 5758
5805 5803 5802 5801 5799 5798 5797 5797 5796 5795 5794 5793 5792 5791 5790 5788 5787 5785 5784 5783 5782 5781 5780 5779 5778 5777 5776 5775 5774 5774 5773 5772 5770 5769 5768 5767 5766 5765 5764 5763 5761 5760 5758
5806 5804 5802 5801 5800 5798 5797 5796 5796 5795 5794 5793 5791 5790 5789 5788 5786 5785 5784 5783 5782 5780 5779 5779 5778 5777 5776 5775 5774 5773 5772 5771 5770 5769 5768 5767 5766 5766 5764 5763 5761 5760 5758
5805 5804 5803 5801 5800 5799 5798 5796 5796 5795 5794 5792 5791 5790 5788 5787 5786 5785 5784 5783 5781 5780 5779 5778 5777 5777 5776 5774 5773 5772 5771 5770 5769 5768 5767 5767 5766 5765 5764 5763 5761 5760 5758
5802 5803 5803 5801 5800 5800 5798 5797 5796 5795 5794 5792 5791 5789 5788 5787 5785 5784 5783 5782 5781 5780 5779 5777 5777 5776 5775 5774 5772 5771 5771 5769 5768 5767 5767 5766 5766 5765 5764 5762 5761 5760 5758
5800 5802 5803 5802 5801 5800 5799 5798 5796 5795 5793 5792 5790 5789 5788 5786 5785 5784 5783 5782 5782 5780 5779 5778 5776 5775 5775 5774 5772 5771 5770 5769 5768 5767 5767 5766 5766 5764 5763 5762 5760 5759 5758
5804 5804 5804 5804 5803 5801 5800 5799 5796 5795 5793 5791 5790 5789 5787 5786 5784 5784 5783 5782 5781 5780 5779 5777 5776 5775 5774 5773 5772 5770 5769 5768 5767 5767 5766 5766 5765 5764 5762 5761 5760 5759 5758
5806 5806 5806 5806 5804 5803 5801 5799 5797 5795 5793 5792 5791 5789 5787 5785 5784 5783 5782 5781 5780 5779 5778 5777 5776 5775 5774 5773 5772 5770 5768 5767 5766 5766 5765 5764 5764 5763 5761 5760 5759 5758 5757
5809 5809 5809 5808 5806 5804 5802 5800 5797 5796 5794 5793 5791 5789 5788 5786 5784 5783 5782 5781 5780 5779 5777 5776 5775 5774 5773 5772 5771 5770 5768 5766 5765 5764 5763 5763 5762 5761 5760 5759 5758 5757 5756
5811 5811 5811 5810 5809 5806 5803 5801 5799 5797 5795 5793 5792 5790 5789 5787 5785 5784 5782 5780 5779 5778 5777 5776 5775 5774 5773 5772 5770 5769 5767 5765 5764 5762 5762 5761 5760 5759 5758 5757 5757 5756 5755
5814 5813 5812 5811 5810 5807 5805 5803 5801 5798 5796 5794 5792 5791 5789 5788 5786 5784 5782 5780 5779 5778 5777 5775 5774 5772 5771 5770 5768 5767 5766 5764 5763 5761 5760 5758 5757 5757 5756 5755 5754 5753 5752
5816 5814 5813 5813 5810 5807 5806 5804 5802 5799 5797 5794 5792 5791 5789 5788 5786 5784 5781 5779 5778 5777 5775 5773 5771 5769 5767 5766 5765 5764 5763 5762 5761 5760 5758 5757 5755 5754 5753 5752 5752 5751 5750
5818 5815 5813 5812 5809 5807 5806 5804 5801 5799 5796 5794 5792 5790 5789 5787 5785 5783 5780 5778 5777 5775 5773 5772 5769 5767 5764 5763 5762 5762 5761 5760 5759 5758 5756 5755 5753 5752 5751 5750 5749 5748 5748
5821 5817 5815 5812 5809 5807 5804 5802 5799 5797 5795 5793 5791 5790 5788 5786 5784 5782 5779 5777 5775 5772 5770 5768 5766 5765 5763 5761 5760 5759 5758 5758 5757 5755 5754 5753 5751 5750 5748 5747 5746 5745 5745
5820 5816 5814 5811 5809 5806 5803 5799 5795 5792 5792 5791 5790 5788 5787 5785 5783 5780 5777 5774 5772 5769 5767 5765 5763 5761 5759 5758 5754 5751 5752 5754 5754 5753 5752 5751 5749 5748 5746 5744 5743 5742 5741
5819 5816 5814 5811 5810 5808 5805 5802 5798 5794 5791 5790 5788 5786 5785 5783 5781 5778 5775 5772 5770 5766 5763 5762 5760 5757 5755 5755 5749 5743 5739 5741 5746 5750 5748 5747 5746 5745 5743 5742 5741 5739 5738
5818 5817 5816 5812 5810 5808 5806 5802 5797 5792 5789 5786 5784 5783 5783 5781 5778 5776 5772 5769 5766 5763 5760 5758 5757 5754 5750 5750 5749 5743 5734 5730 5735 5740 5742 5742 5741 5740 5739 5739 5737 5736 5735
5820 5820 5817 5813 5810 5808 5805 5800 5794 5788 5783 5783 5782 5780 5779 5778 5776 5774 5771 5768 5764 5760 5757 5756 5754 5752 5749 5744 5744 5744 5741 5737 5730 5727 5732 5735 5735 5735 5734 5734 5733 5732 5731
5821 5819 5816 5812 5809 5807 5804 5800 5794 5789 5786 5784 5782 5779 5776 5774 5773 5771 5768 5765 5761 5758 5755 5752 5751 5748 5746 5742 5739 5738 5736 5733 5731 5724 5720 5723 5726 5728 5729 5729 5728 5728 5727
5818 5816 5814 5810 5807 5805 5802 5799 5795 5790 5786 5781 5778 5775 5772 5770 5769 5767 5764 5761 5758 5755 5752 5749 5747 5745 5743 5740 5737 5735 5731 5728 5725 5721 5716 5715 5716 5719 5722 5723 5723 5722 5722